Location: Ku?niki
(51.4449°N, 17.8974°E)
Time: 05:05:52
(UTC+00:00)

NOAA 18 - Visible Passes

Search period start: 26 June 2022 00:00
Search period end: 06 July 2022 00:00
Orbit: 840 x 859 km, 98.9° (Epoch: 25 June)

Date Brightness Start Highest point End Pass type
(mag) Time Alt. Az. Time Alt. Az. Time Alt. Az.
26 Jun 5.3 20:16:11 10° SSE 20:21:41 83° WSW 20:27:16 10° NNW visible
26 Jun 7.5 22:00:06 10° WSW 22:03:14 15° W 22:06:23 10° NW visible
27 Jun 5.3 20:04:09 10° SSE 20:09:39 81° ENE 20:15:13 10° NNW visible
27 Jun 7.3 21:47:11 10° SW 21:51:00 19° W 21:54:51 10° NW visible
28 Jun 5.4 19:52:11 10° SSE 19:57:38 67° ENE 20:03:09 10° NNW visible
28 Jun 7.0 21:34:28 10° SW 21:38:47 23° W 21:43:09 10° NW visible
29 Jun 6.7 21:21:55 10° SSW 21:26:37 28° W 21:31:22 10° NW visible
30 Jun 6.5 21:09:27 10° SSW 21:14:27 35° W 21:19:31 10° NNW visible
01 Jul 6.2 20:57:06 10° S 21:02:19 42° W 21:07:36 10° NNW visible
02 Jul 5.8 20:44:50 10° S 20:50:12 52° W 20:55:38 10° NNW visible
03 Jul 5.6 20:32:38 10° S 20:38:06 64° WSW 20:43:39 10° NNW visible
03 Jul 7.6 22:18:18 10° W 22:19:54 11° W 22:21:30 10° WNW visible
04 Jul 5.4 20:20:31 10° SSE 20:26:02 78° WSW 20:31:38 10° NNW visible
04 Jul 7.5 22:04:45 10° WSW 22:07:38 14° W 22:10:31 10° NW visible
05 Jul 5.3 20:08:27 10° SSE 20:13:59 86° ENE 20:19:35 10° NNW visible
05 Jul 7.3 21:51:45 10° SW 21:55:23 18° W 21:59:04 10° NW visible
